CAPE
16 0 0 8 1 0 0 0 0 0 0 0 0 0 0 0 0 0 0 0 0 0 0 0 0 0 17 49 63 38 19 39 13 13 19 8 0 0 0 0 0 0 0 0
9 0 0 0 0 0 0 1 0 0 0 1 0 0 0 0 0 0 0 0 0 0 0 0 0 0 0 3 29 25 8 11 0 4 15 13 4 0 6 0 3 0 0 0
5 0 0 0 0 0 0 0 0 0 1 3 0 0 0 0 0 0 0 0 0 0 0 0 0 0 0 0 0 10 4 43 33 18 10 16 13 18 19 33 1 0 0 0
6 0 0 1 0 0 0 0 0 1 5 0 0 0 0 0 0 0 0 0 0 0 0 0 0 0 0 0 0 1 6 21 45 69 22 13 50 44 49 53 38 6 0 0
0 0 0 0 0 1 0 1 0 18 22 15 0 15 0 0 0 0 0 0 0 0 0 0 0 0 0 0 0 0 0 0 1 0 31 42 48 88 78 48 38 43 28 5
0 0 0 0 0 5 1 21 14 8 13 6 0 0 0 0 0 0 0 0 0 0 0 0 0 0 0 0 0 0 0 0 0 0 0 0 6 70 109 63 32 12 19 16
12 0 0 3 9 30 69 38 25 14 5 0 0 0 0 0 0 0 0 0 0 0 0 0 0 0 0 0 0 0 0 0 0 0 0 0 0 0 52 87 22 5 0 0
3 3 0 0 1 11 12 31 36 1 0 0 0 0 0 0 0 0 0 0 0 0 0 0 0 0 0 0 0 0 0 0 0 0 0 0 0 0 0 35 70 21 0 0
2 0 0 0 0 0 4 42 2 1 0 0 0 0 0 0 0 0 0 0 0 0 0 0 0 0 0 0 0 0 0 0 0 0 0 0 0 0 0 0 22 43 28 1
0 0 0 0 3 15 2 0 0 0 0 0 0 0 0 0 0 0 0 0 0 0 0 0 0 0 0 0 0 0 0 0 0 0 0 0 0 0 0 0 0 4 20 12
2 0 1 0 2 0 1 5 1 0 0 0 0 0 0 0 0 0 0 0 0 0 0 0 0 0 0 0 0 0 0 0 0 0 0 0 0 0 0 0 0 0 6 13
0 7 0 0 0 7 13 11 2 2 0 0 0 0 0 0 0 0 0 0 0 0 0 0 0 0 0 0 0 0 0 0 0 0 0 0 0 0 0 0 0 0 0 3
0 1 1 1 1 0 9 0 9 0 0 0 0 0 0 0 0 0 0 0 0 0 0 0 0 0 0 0 0 0 0 0 0 0 0 0 0 0 0 0 0 0 0 0
54 4 0 0 0 0 0 0 1 0 3 0 0 3 3 1 0 0 0 0 0 0 0 0 0 0 0 0 0 0 0 0 0 0 0 0 0 0 0 0 0 0 0 2
41 0 3 0 0 0 0 0 4 22 19 30 0 6 6 0 0 0 0 0 0 0 0 0 0 0 0 0 0 0 0 0 0 0 0 0 0 0 0 0 0 0 0 0
1 4 0 0 0 0 0 0 0 0 2 0 0 0 0 0 0 0 0 0 0 0 0 0 0 0 0 0 0 0 0 0 0 0 0 1 3 0 0 0 0 0 0 0
15 0 0 0 0 0 0 0 0 0 0 5 7 0 2 0 0 0 0 0 0 0 0 0 0 0 0 0 0 0 0 0 0 0 1 1 1 4 2 0 0 0 0 0
6 0 0 0 0 0 0 0 0 0 1 3 0 0 0 0 0 0 0 0 0 0 0 0 0 0 0 0 0 0 0 0 1 0 1 2 2 4 3 2 0 0 0 0
13 0 0 0 0 0 0 0 0 0 0 0 0 0 0 0 0 0 0 0 0 0 0 0 0 0 0 0 0 0 0 0 1 0 2 1 2 3 2 3 2 1 1 1
4 1 2 0 0 0 0 0 0 0 0 0 0 0 0 0 0 0 0 0 0 0 0 0 0 0 0 0 0 0 0 0 0 1 0 1 1 3 4 2 2 0 0 0
1 1 1 0 0 0 0 0 0 0 0 0 0 0 0 0 0 0 0 0 0 0 0 0 0 0 0 0 0 0 0 0 0 0 1 0 0 2 3 3 2 1 0 0
0 0 0 0 0 0 0 0 0 0 0 0 0 0 0 0 0 0 0 0 0 0 0 0 0 0 0 0 0 0 0 0 0 1 1 0 0 1 4 3 2 1 0 0
0 0 0 0 0 0 0 0 0 0 0 0 0 0 0 0 0 0 0 0 0 0 0 0 0 0 0 0 0 0 0 0 1 0 0 0 0 0 4 3 2 1 0 0
0 0 0 0 0 0 0 0 0 0 0 0 0 0 0 0 0 0 0 0 0 0 0 0 0 0 0 0 0 0 0 0 1 0 0 0 0 0 2 2 1 1 1 1
0 0 0 0 0 0 0 0 0 0 0 0 0 0 0 0 0 0 0 0 0 0 0 0 0 0 0 0 0 0 0 0 0 0 0 0 2 2 2 1 0 0 0 0
0 0 0 0 0 0 0 0 0 0 0 0 0 0 0 0 0 0 0 0 0 0 0 0 0 0 0 0 0 0 0 0 0 0 0 1 1 1 1 0 0 1 1 1
CIN
-9 -0 -0 -1 -0 -0 -0 -0 -0 -0 -0 -15 -0 -0 -0 -0 -0 -0 -0 -0 -0 -0 -0 -0 -0 -0 -169 -182 -210 -212 -207 -182 -171 -163 -174 -200 -0 -0 -0 -0 -0 -0 -0 -0
-3 -0 -0 -0 -0 -0 -0 -0 -0 -0 -9 -8 -0 -0 -0 -0 -0 -0 -0 -0 -0 -0 -0 -0 -0 -0 -0 -157 -203 -195 -213 -174 -8 -143 -156 -132 -156 -5 -212 -0 -330 -0 -0 -0
-3 -0 -0 -0 -0 -0 -0 -0 -0 -0 -43 -30 -0 -0 -0 -0 -0 -0 -0 -0 -0 -0 -0 -0 -0 -0 -0 -0 -79 -223 -226 -184 -153 -135 -129 -131 -119 -133 -147 -181 -14 -0 -0 -0
-3 -0 -0 -7 -0 -0 -0 -0 -0 -0 -4 -0 -1 -0 -0 -0 -0 -0 -0 -0 -0 -0 -0 -0 -0 -0 -0 -0 -0 -54 -225 -207 -147 -122 -110 -117 -115 -126 -183 -186 -200 -219 -0 -0
-0 -0 -0 -0 -0 -1 -0 -0 -1 -5 -4 -8 -0 -5 -0 -0 -0 -0 -0 -0 -0 -0 -0 -0 -0 -0 -0 -0 -0 -0 -73 -0 -209 -0 -103 -102 -104 -115 -144 -159 -163 -210 -232 -255
-0 -0 -0 -0 -0 -5 -5 -2 -7 -15 -6 -0 -0 -0 -0 -0 -0 -0 -0 -0 -0 -0 -0 -0 -0 -0 -0 -0 -0 -0 -0 -0 -0 -0 -0 -0 -123 -111 -101 -129 -173 -198 -236 -231
-1 -0 -0 -26 -1 -7 -5 -3 -4 -2 -1 -0 -0 -1 -0 -0 -0 -0 -0 -0 -0 -0 -0 -0 -0 -0 -0 -0 -0 -0 -0 -0 -0 -0 -0 -0 -0 -6 -91 -77 -125 -139 -0 -0
-1 -0 -0 -0 -0 -16 -37 -16 -7 -14 -0 -0 -0 -0 -0 -0 -0 -0 -0 -0 -0 -0 -0 -0 -0 -0 -0 -0 -0 -0 -0 -0 -0 -0 -0 -0 -0 -0 -0 -123 -100 -119 -0 -0
-0 -2 -0 -0 -0 -2 -4 -7 -80 -3 -0 -0 -0 -0 -0 -0 -0 -0 -0 -0 -0 -0 -0 -0 -0 -0 -0 -0 -0 -0 -0 -0 -0 -0 -0 -0 -0 -0 -0 -0 -107 -101 -121 -14
-0 -0 -0 -0 -4 -7 -2 -0 -0 -0 -0 -0 -0 -0 -0 -0 -0 -0 -0 -0 -0 -0 -0 -0 -0 -0 -0 -0 -0 -0 -0 -0 -0 -0 -0 -0 -0 -0 -0 -0 -0 -29 -113 -76
-15 -0 -0 -8 -0 -0 -20 -4 -1 -4 -0 -0 -0 -0 -0 -0 -0 -0 -0 -0 -0 -0 -0 -0 -0 -0 -0 -0 -0 -0 -0 -0 -0 -0 -0 -0 -0 -0 -0 -0 -0 -0 -17 -16
-1 -33 -0 -0 -0 -15 -4 -8 -3 -44 -2 -0 -0 -0 -0 -0 -0 -0 -0 -0 -0 -0 -0 -0 -0 -0 -0 -0 -0 -0 -0 -0 -0 -0 -0 -0 -0 -0 -0 -0 -0 -0 -0 -19
-1 -1 -5 -9 -0 -0 -2 -3 -20 -0 -0 -0 -0 -0 -0 -0 -0 -0 -0 -0 -0 -0 -0 -0 -0 -0 -0 -0 -0 -0 -0 -0 -0 -0 -0 -0 -0 -0 -0 -0 -0 -0 -0 -0
-55 -75 -16 -0 -0 -0 -0 -1 -0 -0 -5 -3 -13 -28 -48 -58 -0 -0 -0 -0 -0 -0 -0 -0 -0 -0 -0 -0 -0 -0 -0 -0 -0 -0 -0 -0 -0 -0 -0 -0 -0 -0 -0 -8
-7 -0 -12 -0 -0 -0 -0 -54 -64 -26 -39 -34 -0 -54 -45 -0 -0 -0 -0 -0 -0 -0 -0 -0 -0 -0 -0 -0 -0 -0 -0 -0 -0 -0 -0 -0 -0 -0 -0 -0 -0 -0 -0 -0
-29 -9 -0 -0 -0 -0 -0 -0 -0 -0 -46 -0 -0 -0 -0 -0 -0 -0 -0 -0 -0 -0 -0 -0 -0 -0 -0 -0 -0 -0 -0 -0 -0 -0 -0 -0 -0 -0 -0 -0 -0 -0 -0 -0
-16 -0 -0 -0 -0 -0 -0 -0 -0 -0 -0 -38 -41 -0 -70 -0 -0 -0 -0 -0 -0 -0 -0 -0 -0 -0 -0 -0 -0 -0 -0 -0 -0 -0 -0 -0 -0 -0 -0 -0 -0 -0 -0 -0
-14 -0 -0 -0 -0 -0 -0 -0 -0 -0 -26 -39 -0 -0 -0 -0 -0 -0 -0 -0 -0 -0 -0 -0 -0 -0 -0 -0 -0 -0 -0 -0 -0 -0 -0 -0 -0 -0 -0 -0 -0 -0 -0 -0
-4 -5 -0 -0 -0 -0 -0 -0 -0 -0 -0 -0 -0 -0 -0 -0 -0 -0 -0 -0 -0 -0 -0 -0 -0 -0 -0 -0 -0 -0 -0 -0 -0 -0 -0 -0 -0 -0 -0 -0 -0 -0 -0 -0
-11 -19 -15 -0 -0 -0 -0 -0 -0 -0 -0 -0 -0 -0 -0 -0 -0 -0 -0 -0 -0 -0 -0 -0 -0 -0 -0 -0 -0 -0 -0 -0 -0 -0 -0 -0 -0 -0 -0 -0 -0 -0 -0 -0
-0 -5 -3 -0 -0 -0 -0 -0 -0 -0 -0 -0 -0 -0 -0 -0 -0 -0 -0 -0 -0 -0 -0 -0 -0 -0 -0 -0 -0 -0 -0 -0 -0 -0 -0 -0 -0 -0 -0 -0 -0 -0 -0 -0
-0 -0 -2 -0 -0 -0 -0 -0 -0 -0 -0 -0 -0 -0 -0 -0 -0 -0 -0 -0 -0 -0 -0 -0 -0 -0 -0 -0 -0 -0 -0 -0 -0 -0 -0 -0 -0 -0 -0 -0 -0 -0 -0 -0
-1 -0 -0 -0 -0 -0 -0 -0 -0 -0 -0 -0 -0 -0 -0 -0 -0 -0 -0 -0 -0 -0 -0 -0 -0 -0 -0 -0 -0 -0 -0 -0 -0 -0 -0 -0 -0 -0 -0 -0 -0 -0 -0 -0
-0 -0 -0 -0 -0 -0 -0 -0 -0 -0 -0 -0 -0 -0 -0 -0 -0 -0 -0 -0 -0 -0 -0 -0 -0 -0 -0 -0 -0 -0 -0 -0 -0 -0 -0 -0 -0 -0 -0 -0 -0 -0 -0 -0
-0 -0 -0 -0 -0 -0 -0 -0 -0 -0 -0 -0 -0 -0 -0 -0 -0 -0 -0 -0 -0 -0 -0 -0 -0 -0 -0 -0 -0 -0 -0 -0 -0 -0 -0 -0 -0 -0 -0 -0 -0 -0 -0 -0
-0 -0 -0 -0 -0 -0 -0 -0 -0 -0 -0 -0 -0 -0 -0 -0 -0 -0 -0 -0 -0 -0 -0 -0 -0 -0 -0 -0 -0 -0 -0 -0 -0 -0 -0 -0 -0 -0 -0 -0 -0 -0 -0 -0
Wind_Speed
23 29 35 30 27 28 32 34 35 31 29 29 32 35 36 35 38 39 38 35 35 33 34 32 27 22 23 21 17 16 15 15 16 16 15 16 17 20 17 16 13 12 14 16
26 39 29 26 27 29 33 36 38 35 32 30 34 40 40 39 43 42 40 41 40 37 34 35 37 30 29 22 15 14 14 15 15 16 19 21 23 23 23 22 18 16 16 15
33 28 23 27 30 33 32 34 35 36 35 33 36 47 44 39 42 39 38 38 42 40 38 37 36 35 30 29 25 21 17 15 16 15 19 19 22 25 25 24 25 24 22 18
31 32 29 25 30 27 38 30 33 34 35 40 30 49 51 44 45 39 36 34 40 34 33 32 35 35 32 31 28 30 27 22 18 18 18 20 21 26 24 22 20 18 27 24
37 31 31 35 32 25 33 30 31 34 38 40 42 39 48 33 35 34 37 44 35 32 27 22 23 23 22 24 26 30 33 32 28 23 22 22 23 24 22 21 22 18 21 21
33 27 28 32 32 29 27 30 31 31 33 41 36 33 47 42 41 37 31 28 20 18 19 19 20 22 25 27 27 29 32 34 33 30 27 24 26 25 24 25 25 22 21 20
27 30 25 25 29 29 27 28 33 35 36 40 32 29 30 30 20 19 29 18 16 15 16 19 22 24 24 25 26 28 30 33 34 35 34 30 30 30 28 24 29 27 26 23
33 35 32 27 32 27 30 29 32 33 36 38 25 33 29 21 18 23 16 12 13 15 17 19 22 23 24 26 29 29 30 32 33 35 37 39 38 36 36 33 31 31 31 29
29 34 22 25 27 29 31 33 33 40 37 37 31 36 34 27 24 19 14 12 14 17 19 20 22 23 24 26 29 31 32 33 34 34 35 37 39 40 39 37 36 36 34 31
23 29 27 26 24 29 33 23 31 30 35 40 38 38 33 24 18 13 11 11 12 15 18 18 19 22 25 28 30 32 33 35 36 37 37 37 38 39 40 39 39 37 36 34
24 26 25 21 30 29 28 33 30 28 31 30 32 29 26 15 9 7 8 10 11 13 15 16 19 23 26 28 31 33 35 36 37 38 39 39 39 40 40 40 39 37 36 35
27 24 27 25 24 26 28 33 30 34 29 24 26 23 20 3 4 7 9 9 12 13 13 17 21 25 29 31 33 35 37 38 39 40 41 41 40 40 40 40 40 37 37 35
33 30 26 26 25 21 28 29 25 26 28 38 31 29 15 12 10 11 13 13 14 15 19 22 26 28 31 34 35 38 39 41 41 43 43 42 41 41 40 39 39 37 36 35
30 35 37 37 33 21 24 23 26 24 31 37 36 28 20 15 13 15 18 14 15 19 23 26 30 32 34 37 39 41 42 42 44 45 44 43 43 42 40 39 38 37 34 33
28 38 30 28 21 21 27 26 30 36 40 36 39 31 32 22 17 18 18 20 20 23 27 30 34 37 39 40 42 44 44 46 46 46 46 45 44 44 42 41 38 35 33 31
25 35 30 32 29 29 32 31 31 36 40 43 40 43 28 17 19 24 24 24 27 29 30 34 37 40 41 42 44 45 47 48 47 46 46 46 45 45 43 42 40 37 36 34
25 27 27 35 27 28 40 30 25 30 30 30 38 39 31 26 23 25 26 27 30 33 37 39 40 41 41 44 45 46 49 50 48 47 47 45 47 47 46 44 42 40 39 37
22 25 24 24 22 39 30 22 23 27 28 29 33 28 26 26 22 22 25 30 33 37 39 40 41 43 44 46 45 48 50 50 49 49 49 48 49 48 47 45 43 40 38 38
17 22 24 25 26 27 25 22 20 21 28 25 25 26 27 25 23 25 28 31 34 36 38 39 41 44 46 47 49 51 51 50 49 50 50 51 50 50 48 47 45 42 41 39
15 17 21 21 27 28 23 17 19 14 25 20 21 24 26 24 29 27 32 33 35 37 39 42 45 46 48 50 52 53 52 53 52 52 52 50 50 50 49 47 46 43 40 39
16 18 17 20 22 23 17 17 18 19 26 17 18 19 21 21 23 29 32 35 37 40 43 45 47 50 50 52 52 54 54 54 54 54 52 51 50 50 48 47 45 44 41 38
17 15 17 16 18 22 19 17 15 16 14 13 16 19 22 25 29 33 37 40 42 45 46 48 50 51 51 51 52 55 56 55 55 54 54 53 51 49 47 46 46 43 40 37
15 15 11 12 14 12 14 11 13 12 12 16 19 22 26 30 32 35 38 40 41 44 46 47 50 51 50 50 51 55 55 55 56 56 56 54 52 50 47 45 44 43 39 37
16 15 13 9 11 9 9 10 11 12 13 17 20 24 27 30 33 35 37 39 42 44 47 49 50 52 53 51 52 52 54 54 54 55 55 54 52 51 47 44 42 41 40 39
16 15 7 11 7 6 10 10 11 13 16 20 22 25 27 29 32 35 38 40 41 44 45 47 49 51 52 52 53 53 53 53 54 54 53 52 50 50 48 44 40 39 37 36
16 11 9 12 2 9 9 8 13 16 19 20 23 25 27 29 32 34 36 38 40 43 45 47 49 51 51 51 51 51 51 50 51 51 50 49 48 47 45 40 35 31 30 30
Wind_Direction
269 270 267 271 273 279 283 286 288 294 299 293 287 289 291 293 290 292 294 294 293 293 292 290 293 282 280 284 286 286 285 274 275 276 271 275 273 282 279 278 269 263 272 274
270 266 273 276 275 277 278 281 282 290 293 292 291 289 289 290 287 289 293 291 289 291 290 288 288 288 279 278 273 273 278 279 270 273 281 283 284 282 283 283 279 270 272 271
262 277 270 271 272 274 275 275 282 283 287 290 293 289 288 290 288 292 293 292 290 288 287 287 286 287 288 280 279 276 277 280 276 269 280 285 289 288 285 282 281 278 275 272
267 269 270 273 272 270 274 276 281 283 286 283 290 288 284 289 287 290 294 297 291 293 291 290 290 290 289 287 285 282 283 284 282 278 275 276 277 282 282 281 275 275 279 276
262 270 262 263 269 272 278 280 280 281 281 284 280 287 286 294 289 292 296 292 294 293 296 303 303 304 306 305 299 289 284 286 287 284 277 279 278 281 283 282 283 275 276 271
260 271 268 267 266 267 274 280 285 286 283 279 274 280 285 287 289 296 303 301 296 299 307 314 317 313 310 309 304 300 294 290 289 287 284 279 280 281 282 283 283 282 279 277
261 262 270 271 270 262 269 275 279 280 274 278 286 278 267 299 308 300 301 305 311 308 309 318 318 315 314 315 313 310 305 298 295 292 289 287 284 284 283 279 284 285 285 280
253 263 257 262 261 270 261 259 269 277 276 284 280 278 284 308 302 301 312 315 313 309 309 312 318 319 318 317 315 312 310 309 307 300 293 290 288 287 285 285 284 284 285 285
252 261 273 264 263 257 265 260 268 274 281 288 286 285 287 290 296 300 307 320 315 310 309 310 314 320 323 322 319 318 313 309 309 309 306 300 294 290 287 286 285 284 285 286
265 264 266 262 268 262 259 268 264 268 279 280 286 286 284 286 289 295 305 315 325 322 317 318 325 327 325 322 321 320 318 314 311 309 309 309 304 299 294 290 286 284 285 286
256 263 268 260 257 254 255 257 265 273 279 282 289 293 303 280 278 286 303 322 334 328 322 328 334 331 329 327 325 322 323 322 317 314 310 309 309 305 300 295 293 290 287 286
238 261 262 266 272 265 256 259 258 261 266 276 286 303 302 326 289 293 305 315 323 330 335 332 331 328 326 322 322 322 322 322 323 319 316 311 311 311 306 301 297 295 291 290
235 252 259 263 271 261 258 257 258 264 267 270 280 286 297 292 299 297 301 309 314 317 319 321 324 325 324 324 324 322 321 320 321 321 319 315 313 312 312 309 306 302 297 294
231 247 252 256 262 264 264 262 256 255 265 273 270 286 281 281 288 301 302 316 322 320 321 319 318 320 322 321 320 321 321 321 319 319 318 317 314 312 312 313 310 307 306 302
231 243 247 260 267 266 267 265 258 261 262 267 270 267 270 291 300 303 317 319 316 316 318 318 317 317 319 319 319 320 321 319 319 317 317 316 315 312 309 310 310 309 307 307
234 249 249 257 265 268 269 272 270 269 270 270 274 272 288 298 292 293 297 304 310 312 314 314 316 317 317 318 318 318 318 320 320 318 315 315 315 313 310 306 305 304 303 303
237 248 253 258 265 271 268 268 268 273 275 275 274 278 279 287 295 297 300 305 305 309 311 313 315 316 317 317 318 318 318 318 319 319 318 317 316 312 310 307 303 300 298 298
242 247 258 260 264 263 280 284 273 271 279 276 280 288 290 290 297 305 314 311 311 312 314 313 314 316 317 318 318 317 317 316 315 315 315 315 314 312 310 309 306 300 297 295
237 244 255 260 263 280 285 286 283 275 278 285 284 290 294 295 296 301 313 315 315 315 316 317 318 317 317 317 317 316 316 316 315 315 315 314 312 309 308 306 305 302 297 292
237 241 252 267 268 272 281 294 299 296 283 299 296 296 298 299 294 300 312 317 317 318 317 316 316 317 316 315 315 313 312 312 311 313 314 314 313 309 306 304 302 301 299 293
230 247 243 262 276 285 294 293 292 283 293 303 306 307 309 307 310 310 315 316 319 318 318 318 317 315 315 315 314 311 310 309 310 310 311 311 311 309 306 304 303 300 298 297
244 248 258 266 273 281 295 291 281 299 307 313 316 316 315 315 313 315 316 317 318 318 319 320 319 317 317 317 315 311 309 309 308 308 309 309 308 308 307 304 301 300 297 295
254 264 268 278 286 311 307 307 307 310 312 312 314 316 316 315 316 318 319 322 323 323 323 323 321 320 321 320 318 312 311 310 308 306 305 305 306 305 305 304 301 299 296 293
267 276 285 287 299 303 313 319 322 324 324 324 323 320 320 319 320 322 325 326 327 327 326 326 324 322 320 321 319 316 314 312 310 307 306 304 303 303 303 303 301 298 295 292
275 277 281 289 309 315 309 318 326 328 327 326 326 327 327 327 327 329 329 330 331 331 332 332 330 328 324 323 321 319 317 314 310 308 306 305 303 302 300 301 300 298 297 293
278 278 276 289 306 306 305 321 324 323 326 331 330 330 333 333 331 333 333 334 335 335 335 335 334 332 330 327 324 324 322 319 314 310 309 307 305 303 301 299 301 309 308 305